This is the latest recevied weather packets stored in our database for station/object AB1AU. If no packets are shown the sender has not sent any weather packets the latest 10 day(s).
| Time | Temp. | Humidity | Pressure | Rain* | Wind** | Luminosity | Snow |
|---|---|---|---|---|---|---|---|
| 1777594309 | 8.33° C | 96% | 1007 hPa | 0 mm | - | 0 W/m² | - |
| 1777594005 | 8.33° C | 96% | 1006.9 hPa | 0 mm | - | 0 W/m² | - |
| 1777593701 | 8.33° C | 96% | 1006.8 hPa | 0 mm | - | 0 W/m² | - |
| 1777593397 | 8.33° C | 96% | 1006.8 hPa | 0 mm | - | 0 W/m² | - |
| 1777593096 | 8.33° C | 96% | 1006.9 hPa | 0 mm | - | 0 W/m² | - |
| 1777592795 | 8.33° C | 96% | 1007.1 hPa | 0 mm | - | 0 W/m² | - |
| 1777592491 | 8.33° C | 95% | 1007 hPa | 0 mm | - | 1 W/m² | - |
| 1777592187 | 8.33° C | 96% | 1007.1 hPa | 0 mm | - | 1 W/m² | - |
| 1777591884 | 8.33° C | 95% | 1006.9 hPa | 0 mm | - | 2 W/m² | - |
| 1777591580 | 8.33° C | 95% | 1007.3 hPa | 0 mm | - | 2 W/m² | - |
| 1777591276 | 8.33° C | 96% | 1007.3 hPa | 0 mm | - | 3 W/m² | - |
| 1777590972 | 8.33° C | 95% | 1007.2 hPa | 0 mm | - | 3 W/m² | - |
| 1777590668 | 8.33° C | 95% | 1007.3 hPa | 0 mm | - | 4 W/m² | - |
| 1777590364 | 8.33° C | 95% | 1007.1 hPa | 0 mm | - | 4 W/m² | - |
| 1777590061 | 8.33° C | 95% | 1007.3 hPa | 1.27 mm | - | 5 W/m² | - |
| 1777589758 | 8.33° C | 95% | 1007.3 hPa | 1.27 mm | - | 6 W/m² | - |
| 1777589456 | 8.33° C | 95% | 1007.2 hPa | 0 mm | - | 7 W/m² | - |
| 1777589152 | 8.33° C | 95% | 1007.2 hPa | 0 mm | - | 6 W/m² | - |
| 1777588848 | 8.33° C | 95% | 1007.1 hPa | 0 mm | - | 6 W/m² | - |
| 1777588544 | 8.33° C | 95% | 1007 hPa | 0 mm | - | 9 W/m² | - |
| 1777588240 | 8.33° C | 95% | 1007.3 hPa | 0 mm | - | 10 W/m² | - |
| 1777587935 | 8.33° C | 95% | 1007.2 hPa | 0 mm | - | 17 W/m² | - |
| 1777587632 | 8.33° C | 95% | 1007.5 hPa | 0 mm | - | 17 W/m² | - |
| 1777587326 | 8.33° C | 95% | 1007.4 hPa | 1.78 mm | - | 24 W/m² | - |
| 1777587021 | 8.33° C | 95% | 1007.2 hPa | 1.78 mm | - | 22 W/m² | - |
* Rain latest hour (hover to see other rain measurements)
** Current wind speed in m/s (hover to see current wind gust speed)